haerbin , China , ASIA

  • Sunday
    August 19

      Cloudy

      64 °F

      Southwest

       

  • Monday
    August 20

    Cloudy  Thundershower

    82 °F  66 °F

    South  South

    3~4L    

  • Tuesday
    August 21

    Thundershower  Cloudy

    73 °F  61 °F

    South  South

    3~4L    

  • Wednesday
    August 22

    Cloudy  Cloudy

    81 °F  61 °F

    West  West

        

  • Thursday
    August 23

    Cloudy  Cloudy

    79 °F  64 °F

    East  East

    3~4L   4~5L 

  • Friday
    August 24

    Thundershower  Heavy rain

    73 °F  63 °F

    Northeast  Northeast

    5~6L   4~5L 

  • Saturday
    August 25

    Heavy rain  Moderate rain

    73 °F  59 °F

    South  South

    4~5L   4~5L 

Date   Weather Temperature Humidity Total_rain Visibility Wind
23:00 Cloudy 66°F 85.5% 0mm 999.9km Southeast  1.9m/s
02:00 Cloudy 65°F 88.7% 0mm 999.9km Southwest  1.6m/s
05:00 Cloudy 65°F 89.4% 0mm 999.9km Southwest  1.9m/s
08:00 Cloudy 72°F 77.6% 0mm 999.9km Southeast  2.8m/s
11:00 Cloudy 80°F 67.8% 0mm 999.9km Southeast  3.1m/s
14:00 Cloudy 82°F 62.6% 0mm 999.9km Southeast  3.4m/s
17:00 Cloudy 79°F 66% 0mm 999.9km Southeast  1.5m/s
20:00 Cloudy 72°F 58.9% 0mm 999.9km Southeast  1.6m/s
23:00 Overcast 71°F 86% 0mm 999.9km Southeast  1.5m/s
02:00 Overcast 71°F 94.7% 0mm 999.9km East  1.3m/s
05:00 Overcast 69°F 93.9% 0mm 999.9km Northeast  2.3m/s
08:00 Thundershower 69°F 96% 0.1mm 999.9km Northeast  3.0m/s
11:00 Thundershower 69°F 98% 9.1mm 999.9km Northwest  3.3m/s
14:00 Thundershower 73°F 96.3% 1.7mm 999.9km Northwest  2.9m/s
17:00 Thundershower 73°F 88.5% 0.4mm 999.9km Northwest  2.8m/s
20:00 Thundershower 67°F 77.7% 0.3mm 999.9km Northwest  1.5m/s
23:00 Cloudy 65°F 93.2% 0mm 999.9km Northwest  2.0m/s
02:00 Cloudy 64°F 92.3% 0mm 999.9km Northwest  1.1m/s
05:00 Cloudy 61°F 87.2% 0mm 999.9km Northwest  2.4m/s
08:00 Cloudy 70°F 80.9% 0mm 999.9km Northwest  1.6m/s
11:00 Cloudy 76°F 73.6% 0mm 999.9km Southwest  3.3m/s
14:00 Cloudy 80°F 71% 0mm 999.9km Northwest  2.5m/s
17:00 Cloudy 80°F 72.7% 0mm 999.9km Southwest  2.5m/s
20:00 Cloudy 71°F 65.4% 0mm 999.9km Southwest  1.0m/s
23:00 Cloudy 66°F 85.7% 0mm 999.9km Southwest  1.6m/s
02:00 Cloudy 61°F 89.8% 0mm 999.9km Southwest  2.9m/s
05:00 Cloudy 63°F 90.8% 0mm 999.9km Southeast  1.4m/s
08:00 Cloudy 72°F 82% 0mm 999.9km Southeast  1.6m/s
11:00 Cloudy 77°F 72.8% 0mm 999.9km Northeast  1.4m/s
14:00 Cloudy 78°F 72.4% 0mm 999.9km Northeast  3.4m/s
17:00 Cloudy 78°F 76.2% 0mm 999.9km Northeast  3.0m/s
20:00 Cloudy 69°F 68.8% 0mm 999.9km Northeast  2.8m/s
23:00 Cloudy 68°F 92.8% 0mm 999.9km Northeast  2.4m/s
02:00 Cloudy 67°F 90.9% 0mm 999.9km Northeast  2.0m/s
05:00 Cloudy 65°F 83.4% 0mm 999.9km Northeast  1.6m/s
08:00 Cloudy 70°F 74.5% 0mm 999.9km Northeast  3.9m/s
11:00 Thundershower 72°F 73.8% 2.9mm 999.9km Northwest  3.0m/s
14:00 Overcast 72°F 73.4% 0mm 999.9km Northeast  3.2m/s
17:00 Thundershower 73°F 77.5% 2.4mm 999.9km Northwest  2.5m/s
20:00 Thundershower 69°F 65.2% 7.3mm 999.9km Northeast  1.9m/s
23:00 Overcast 66°F 97.5% 0mm 999.9km Southwest  2.7m/s
02:00 Heavy rain 64°F 98.8% 15.7mm 999.9km Northeast  1.8m/s
05:00 Overcast 63°F 93.1% 0mm 999.9km Southwest  2.3m/s
08:00 Moderate rain 67°F 85.8% 9.3mm 999.9km Northeast  1.9m/s
11:00 Overcast 69°F 79.3% 0mm 999.9km Southwest  2.5m/s
14:00 Cloudy 73°F 79.8% 0mm 999.9km Northeast  2.8m/s
17:00 Cloudy 69°F 75.7% 0mm 999.9km Northwest  2.8m/s
20:00 Rainstorm 68°F 71.5% 25mm 999.9km Northeast  1.7m/s
23:00 Cloudy 60°F 92.4% 0mm 999.9km Southeast  1.2m/s
02:00 Light rain 60°F 97.5% 2.2mm 999.9km Northeast  0.1m/s
05:00 Sunny 59°F 94.8% 0mm 999.9km Southeast  1.8m/s